[[{"header":{"parameterUnit":"m.s-1","parameterCategory":2,"la1":30.2991,"la2":30.254,"lo1":-89.0895,"lo2":-89.0444,"dy":0.0017,"dx":0.0017,"nx":28,"ny":28,"refTime":"2023-10-10T21:00:00:Z","depth":"0","parameterNumber":2,"parameterNumberName":"U-component_of_CURRENTS"},"data":[0,0,0,0,0,0,0,0,0,0,0,0,0,0,0,0,0,0,0,0,0,0,0,0,0,0,0,0,0,0,0,0,0,0,0,0,0,0,0,0,0,0,0,0,0,0,0,0,0,0,0,0,0,0,0,0,0,0,0.2116,0.2116,0,0.2108,0.2108,0.2108,0.2095,0.2095,0.2095,0.2095,0.2067,0.2066,0.2066,0,0,0,0,0,0,0,0,0,0,0,0,0,0.2104,0.2104,0.2116,0.2116,0.2117,0.2108,0.2108,0.2108,0.2095,0.2095,0.2095,0.2095,0.2067,0.2066,0.2065,0,0,0,0,0,0,0,0,0,0,0,0,0,0.2102,0.2104,0.2116,0.2111,0.211,0.2108,0.2108,0.2108,0.2095,0.2095,0.2095,0.2095,0.2067,0.2066,0.2065,0.206,0,0,0.2062,0.2062,0,0,0,0,0,0,0,0,0.2102,0.2102,0.2112,0.2111,0.2111,0.2104,0.2093,0.2091,0.2095,0.2099,0.2095,0.2095,0.2079,0.2077,0.2073,0.2058,0.2057,0.2062,0.2061,0.2061,0.2061,0,0,0,0,0,0,0,0.2102,0.2102,0.2111,0.2112,0.2111,0.2103,0.2103,0.2093,0.2087,0.2098,0.2098,0.21,0.2078,0.2074,0.2072,0.2057,0.2062,0.2061,0.206,0.206,0.208,0.2081,0,0,0,0,0,0,0.2108,0.2102,0.2111,0.2111,0.2108,0.2103,0.2103,0.2105,0.2088,0.2086,0.21,0.21,0.2076,0.2073,0.2071,0.2106,0.2061,0.206,0.2059,0.2079,0.208,0.2081,0,0,0,0,0,0,0.2108,0.2109,0.2112,0.2108,0.2108,0.2104,0.2106,0.2105,0.2107,0.209,0.2087,0.2105,0.2076,0.2073,0.2076,0.2103,0.2059,0.2058,0.2077,0.2079,0.2081,0.2149,0,0,0,0,0,0,0.2108,0.2109,0.211,0.2109,0.2109,0.2121,0.2106,0.2105,0.2109,0.2108,0.2093,0.209,0.2075,0.2078,0.2075,0.2101,0.2058,0.2076,0.2078,0.208,0.2145,0.2153,0.2159,0,0,0,0,0,0.2107,0.2114,0.211,0.2111,0.2111,0.2122,0.2122,0.2117,0.211,0.2117,0.2108,0.2091,0.209,0.2078,0.2074,0.2101,0.2075,0.2077,0.208,0.2142,0.2151,0.2159,0,0,0,0,0,0,0.2107,0.2113,0.2109,0.2116,0.2123,0.2121,0.2126,0.2122,0.212,0.212,0.21,0.2097,0.2113,0.2096,0.2083,0.2113,0.2082,0.2084,0.213,0.2138,0.2145,0.2163,0.2057,0,0,0,0,0,0.2108,0.2116,0.212,0.2127,0.2132,0.213,0.2132,0.2132,0.2131,0.213,0.2119,0.2114,0.212,0.212,0.2117,0.2128,0.2136,0.2144,0.2151,0.2157,0.217,0.2209,0.2221,0.209,0.209,0.209,0,0,0.2107,0.2114,0.2116,0.2127,0.213,0.2146,0.2131,0.2143,0.2158,0.2127,0.2141,0.2136,0.2129,0.2148,0.2153,0.2136,0.2201,0.2161,0.2166,0.2176,0.2213,0.2226,0.2237,0.2092,0.2091,0.2091,0,0,0.2117,0.212,0.2131,0.2142,0.2155,0.216,0.2167,0.2171,0.2177,0.2189,0.218,0.2195,0.2186,0.2199,0.2202,0.2246,0.2237,0.2241,0.229,0.2328,0.2339,0.2349,0.2384,0.2397,0.2244,0.2244,0.2244,0,0.2115,0.2133,0.2136,0.2154,0.2169,0.2171,0.2192,0.22,0.2205,0.2221,0.2202,0.2228,0.2217,0.2262,0.2278,0.2264,0.228,0.2258,0.2338,0.2348,0.2358,0.2391,0.2404,0.2247,0.2247,0.2247,0.2246,0,0.2135,0.2152,0.2163,0.2188,0.2205,0.2225,0.2243,0.2259,0.2264,0.2275,0.2314,0.2308,0.2327,0.2329,0.2315,0.238,0.237,0.2345,0.2319,0.2375,0.2406,0.2419,0.2252,0.2251,0.225,0.2249,0,0,0.2123,0.2167,0.2172,0.2192,0.2227,0.2242,0.2282,0.2321,0.2358,0.2362,0.2411,0.2427,0.2428,0.2433,0.2426,0.2457,0.2533,0.2431,0.2432,0.247,0.2623,0.2607,0.2619,0.2523,0.2525,0.2527,0.2621,0,0.2137,0.2177,0.22,0.2244,0.2267,0.2295,0.2337,0.2374,0.2403,0.2448,0.2464,0.2502,0.2468,0.2486,0.2514,0.253,0.2568,0.2511,0.2558,0.256,0.2544,0.2634,0.2603,0.2683,0.2633,0.2635,0.2636,0,0.2148,0.2176,0.222,0.2282,0.2297,0.2327,0.2401,0.2441,0.251,0.2534,0.2577,0.2588,0.2643,0.2598,0.2668,0.2633,0.2639,0.2645,0.2648,0.262,0.2569,0.2617,0.2707,0.2704,0.2655,0.2654,0.2652,0,0.2133,0.2191,0.2228,0.2246,0.2315,0.2348,0.2392,0.2466,0.2502,0.2596,0.263,0.2692,0.2723,0.275,0.2755,0.2722,0.2826,0.2778,0.2775,0.2773,0.275,0.2743,0.2847,0.2838,0.2838,0.2837,0.2837,0,0.2139,0.2167,0.2224,0.2242,0.2293,0.2352,0.2415,0.2473,0.2552,0.2603,0.2673,0.2722,0.2763,0.2812,0.2807,0.2842,0.2871,0.2815,0.2809,0.2772,0.2766,0.2761,0.2726,0.2841,0.284,0.2839,0.2839,0,0.2113,0.2152,0.2192,0.2263,0.2283,0.2321,0.2396,0.2445,0.2539,0.261,0.2641,0.2755,0.2843,0.2879,0.2938,0.2911,0.2883,0.2939,0.2894,0.2881,0.2856,0.2824,0.275,0.2654,0.2963,0.2964,0.2964,0,0.2101,0.212,0.2181,0.22,0.223,0.2286,0.2325,0.2418,0.2472,0.2619,0.2655,0.2779,0.2859,0.2967,0.2974,0.3008,0.2907,0.2973,0.2902,0.2886,0.2847,0.2686,0.2597,0.2903,0.2903,0.2903,0.2903,0,0.2075,0.2097,0.2125,0.216,0.2196,0.2234,0.2304,0.2328,0.245,0.253,0.2658,0.2744,0.2889,0.2945,0.3001,0.2996,0.287,0.2969,0.2974,0.2841,0.2652,0.2546,0.2806,0.2901,0.2902,0.2902,0.2902,0.2902,0.2043,0.205,0.2083,0.2115,0.2147,0.2177,0.2185,0.227,0.234,0.2446,0.2587,0.2712,0.2885,0.2982,0.2958,0.2961,0.2849,0.2921,0.2896,0.2744,0.2613,0.2871,0.2937,0.2937,0.2937,0.2938,0.2938,0,0.1993,0.2009,0.2036,0.206,0.2065,0.2112,0.2162,0.2164,0.2216,0.2377,0.2489,0.2705,0.2806,0.2908,0.3004,0.2939,0.2743,0.2877,0.2678,0.2599,0.2889,0.2854,0.2879,0.2879,0.2879,0.2879,0.2879,0.2879,0.1966,0.1965,0.1982,0.1969,0.1985,0.1964,0.1973,0.1999,0.2097,0.2234,0.2381,0.2538,0.2829,0.3044,0.3063,0.2972,0.2736,0.2629,0.255,0.2837,0.284,0.2842,0.2804,0.2818,0.2818,0.2177,0.2172,0.2169]},{"header":{"parameterUnit":"m.s-1","parameterCategory":2,"la1":30.2991,"la2":30.254,"lo1":-89.0895,"lo2":-89.0444,"dy":0.0017,"dx":0.0017,"nx":28,"ny":28,"refTime":"2023-10-10T21:00:00:Z","depth":"0","parameterNumber":3,"parameterNumberName":"V-component_of_CURRENTS"},"data":[0,0,0,0,0,0,0,0,0,0,0,0,0,0,0,0,0,0,0,0,0,0,0,0,0,0,0,0,0,0,0,0,0,0,0,0,0,0,0,0,0,0,0,0,0,0,0,0,0,0,0,0,0,0,0,0,0,0,-0.0222,-0.0222,0,-0.026,-0.0261,-0.0261,-0.0284,-0.0284,-0.0284,-0.0284,-0.0322,-0.0323,-0.0324,0,0,0,0,0,0,0,0,0,0,0,0,0,-0.0196,-0.0196,-0.0222,-0.0222,-0.0223,-0.026,-0.0261,-0.0262,-0.0284,-0.0284,-0.0284,-0.0284,-0.0322,-0.0323,-0.0325,0,0,0,0,0,0,0,0,0,0,0,0,0,-0.0219,-0.0196,-0.0222,-0.0238,-0.024,-0.026,-0.0261,-0.0262,-0.0284,-0.0284,-0.0284,-0.0284,-0.0322,-0.0323,-0.0325,-0.0333,0,0,-0.0329,-0.033,0,0,0,0,0,0,0,0,-0.0218,-0.022,-0.0235,-0.0237,-0.0239,-0.0267,-0.0266,-0.0285,-0.0284,-0.0268,-0.0284,-0.0284,-0.0303,-0.0306,-0.0315,-0.0335,-0.0337,-0.0329,-0.033,-0.0331,-0.0331,0,0,0,0,0,0,0,-0.0216,-0.0219,-0.0238,-0.0235,-0.0238,-0.0253,-0.0256,-0.027,-0.0286,-0.027,-0.0271,-0.0274,-0.0304,-0.0313,-0.0316,-0.0337,-0.0329,-0.0331,-0.0332,-0.0332,-0.0362,-0.0362,0,0,0,0,0,0,-0.0208,-0.0217,-0.0237,-0.0239,-0.0227,-0.0253,-0.0257,-0.0258,-0.0286,-0.029,-0.0274,-0.0275,-0.0311,-0.0314,-0.0317,-0.0325,-0.0331,-0.0332,-0.0333,-0.0362,-0.0362,-0.0362,0,0,0,0,0,0,-0.0207,-0.0209,-0.0235,-0.0228,-0.0233,-0.0253,-0.0255,-0.0259,-0.0265,-0.0289,-0.0293,-0.0276,-0.0311,-0.0315,-0.0324,-0.0327,-0.0333,-0.0334,-0.0362,-0.0362,-0.0362,-0.0344,0,0,0,0,0,0,-0.0206,-0.0209,-0.0207,-0.0228,-0.0233,-0.0241,-0.0255,-0.026,-0.0267,-0.0269,-0.0292,-0.0295,-0.0311,-0.0322,-0.0326,-0.0329,-0.0335,-0.0363,-0.0362,-0.0362,-0.0345,-0.0343,-0.0342,0,0,0,0,0,-0.0205,-0.0198,-0.0206,-0.0209,-0.0229,-0.0241,-0.0244,-0.026,-0.0267,-0.0267,-0.0282,-0.0295,-0.0324,-0.0323,-0.0328,-0.0331,-0.0363,-0.0362,-0.0362,-0.0345,-0.0343,-0.0342,0,0,0,0,0,0,-0.0185,-0.0201,-0.021,-0.0208,-0.0221,-0.0244,-0.0244,-0.0257,-0.0269,-0.0269,-0.0293,-0.0297,-0.0307,-0.032,-0.0318,-0.0339,-0.0346,-0.0346,-0.0331,-0.033,-0.0328,-0.0319,-0.0337,0,0,0,0,0,-0.018,-0.0179,-0.0199,-0.0196,-0.0201,-0.0223,-0.0229,-0.024,-0.0254,-0.026,-0.0277,-0.0295,-0.0311,-0.0319,-0.0333,-0.0344,-0.0359,-0.0349,-0.0348,-0.0347,-0.0342,-0.0375,-0.0376,-0.0361,-0.0361,-0.0361,0,0,-0.0172,-0.0179,-0.0179,-0.0192,-0.0203,-0.0205,-0.0226,-0.0231,-0.0235,-0.0262,-0.0269,-0.0289,-0.0312,-0.0324,-0.033,-0.0335,-0.0357,-0.0346,-0.0345,-0.0341,-0.0374,-0.0376,-0.0377,-0.0361,-0.0361,-0.0361,0,0,-0.015,-0.0161,-0.0152,-0.0161,-0.0174,-0.0188,-0.0187,-0.0208,-0.0219,-0.0228,-0.0251,-0.0272,-0.0291,-0.0315,-0.0327,-0.0326,-0.0348,-0.033,-0.0319,-0.035,-0.0352,-0.0354,-0.0368,-0.0372,-0.0331,-0.0331,-0.0331,0,-0.0139,-0.0131,-0.0151,-0.0145,-0.0148,-0.0177,-0.0168,-0.0186,-0.0207,-0.0214,-0.0224,-0.0264,-0.0288,-0.031,-0.0314,-0.0324,-0.0338,-0.0324,-0.0349,-0.0351,-0.0353,-0.0368,-0.0372,-0.033,-0.033,-0.033,-0.0331,0,-0.0113,-0.0107,-0.0102,-0.0104,-0.0111,-0.0107,-0.0133,-0.014,-0.0157,-0.0177,-0.02,-0.0238,-0.026,-0.0278,-0.0298,-0.0324,-0.0328,-0.0343,-0.0353,-0.0353,-0.0369,-0.0373,-0.0329,-0.0329,-0.033,-0.033,0,0,-0.0083,-0.0083,-0.008,-0.0071,-0.0088,-0.0087,-0.0094,-0.0107,-0.0104,-0.0143,-0.0145,-0.0198,-0.0222,-0.0238,-0.0273,-0.031,-0.0342,-0.0331,-0.0333,-0.0345,-0.0401,-0.0388,-0.0392,-0.0364,-0.0365,-0.0365,-0.0403,0,-0.0054,-0.0027,-0.0041,-0.0018,-0.0006,-0.0034,-0.0033,-0.0051,-0.0073,-0.0083,-0.014,-0.0155,-0.0206,-0.0215,-0.0263,-0.0317,-0.0353,-0.033,-0.0399,-0.04,-0.039,-0.0396,-0.0382,-0.0414,-0.0408,-0.0408,-0.0409,0,-0.002,-0.0006,0.0025,0.0035,0.0037,0.0045,0.0047,0.0041,0.0011,-0.0006,-0.0044,-0.0086,-0.0144,-0.0185,-0.0289,-0.0271,-0.0332,-0.0382,-0.0385,-0.0382,-0.0396,-0.0415,-0.0422,-0.0565,-0.0415,-0.0415,-0.0414,0,0.0024,0.0041,0.0071,0.0073,0.0078,0.0089,0.0091,0.0072,0.0082,0.0046,0.005,-0.0032,-0.0052,-0.0156,-0.0261,-0.0277,-0.0366,-0.0401,-0.0448,-0.0447,-0.0453,-0.0451,-0.0606,-0.0474,-0.0474,-0.0474,-0.0474,0,0.0065,0.0089,0.0099,0.0118,0.0157,0.0141,0.0176,0.0164,0.0164,0.019,0.0097,0.0107,-0.0047,-0.0117,-0.0233,-0.0341,-0.0345,-0.0443,-0.0459,-0.0444,-0.0441,-0.0579,-0.0666,-0.0476,-0.0475,-0.0475,-0.0475,0,0.0111,0.0116,0.0155,0.0174,0.0183,0.0215,0.0244,0.0273,0.0257,0.029,0.0286,0.0218,0.013,-0.0022,-0.017,-0.0282,-0.0488,-0.0438,-0.0399,-0.041,-0.0597,-0.0683,-0.0849,-0.0944,-0.0508,-0.0508,-0.0508,0,0.0137,0.0164,0.0204,0.0236,0.025,0.029,0.0326,0.0326,0.0362,0.037,0.04,0.033,0.0309,0.0094,-0.012,-0.0316,-0.0474,-0.0438,-0.0478,-0.0606,-0.0714,-0.0782,-0.0855,-0.0478,-0.0478,-0.0477,-0.0477,0,0.0188,0.0205,0.0239,0.0308,0.0355,0.0403,0.0454,0.0503,0.0517,0.055,0.0602,0.0591,0.0391,0.0212,-0.0065,-0.0219,-0.0556,-0.0439,-0.0594,-0.0721,-0.0784,-0.0881,-0.0446,-0.0475,-0.0475,-0.0475,-0.0476,-0.0476,0.023,0.0266,0.0318,0.0383,0.0442,0.0522,0.0578,0.0647,0.073,0.0805,0.0779,0.0801,0.0505,0.0135,-0.0097,-0.0516,-0.0547,-0.0644,-0.074,-0.0798,-0.089,-0.0437,-0.047,-0.047,-0.047,-0.047,-0.0471,0,0.0283,0.0322,0.0388,0.047,0.0549,0.0564,0.0667,0.0736,0.0859,0.0943,0.0996,0.0881,0.0519,0.0121,-0.0427,-0.074,-0.0903,-0.0933,-0.1048,-0.1115,-0.0725,-0.0723,-0.0784,-0.0784,-0.0784,-0.0784,-0.0784,-0.0784,0.0313,0.0384,0.0417,0.0549,0.061,0.0716,0.0783,0.0898,0.0983,0.1105,0.1141,0.113,0.0843,-0.0145,-0.086,-0.1059,-0.1323,-0.1367,-0.152,-0.1264,-0.1245,-0.1227,-0.1247,-0.1417,-0.1418,-0.1872,-0.1876,-0.188]}],[{"header":{"parameterUnit":"m.s-1","parameterCategory":2,"la1":30.2991,"la2":30.254,"lo1":-89.0895,"lo2":-89.0444,"dy":0.0017,"dx":0.0017,"nx":28,"ny":28,"refTime":"2023-10-10T21:00:00:Z","depth":"2","parameterNumber":2,"parameterNumberName":"U-component_of_CURRENTS"},"data":[0,0,0,0,0,0,0,0,0,0,0,0,0,0,0,0,0,0,0,0,0,0,0,0,0,0,0,0,0,0,0,0,0,0,0,0,0,0,0,0,0,0,0,0,0,0,0,0,0,0,0,0,0,0,0,0,0,0,0.2059,0.2059,0,0.2053,0.2053,0.2052,0.2044,0.2044,0.2044,0.2044,0.2021,0.2021,0.202,0,0,0,0,0,0,0,0,0,0,0,0,0,0.2045,0.2045,0.2059,0.2059,0.2059,0.2053,0.2053,0.2052,0.2044,0.2044,0.2044,0.2044,0.2022,0.2021,0.202,0,0,0,0,0,0,0,0,0,0,0,0,0,0.2044,0.2045,0.2059,0.2055,0.2055,0.2053,0.2053,0.2052,0.2044,0.2044,0.2044,0.2044,0.2022,0.2021,0.202,0.2014,0,0,0.2017,0.2017,0,0,0,0,0,0,0,0,0.2044,0.2045,0.2056,0.2056,0.2055,0.2051,0.204,0.2039,0.2044,0.2046,0.2044,0.2044,0.2031,0.2029,0.2026,0.2012,0.2012,0.2017,0.2017,0.2016,0.2016,0,0,0,0,0,0,0,0.2045,0.2045,0.2054,0.2056,0.2056,0.2048,0.2048,0.2039,0.2036,0.2046,0.2046,0.2048,0.203,0.2026,0.2025,0.2011,0.2017,0.2016,0.2016,0.2015,0.2038,0.2039,0,0,0,0,0,0,0.205,0.2045,0.2055,0.2054,0.2052,0.2049,0.2049,0.2051,0.2037,0.2036,0.2048,0.2048,0.2028,0.2026,0.2024,0.2062,0.2016,0.2015,0.2015,0.2037,0.2038,0.2039,0,0,0,0,0,0,0.205,0.2051,0.2055,0.2051,0.2051,0.2049,0.2051,0.2051,0.2055,0.2039,0.2037,0.2055,0.2028,0.2025,0.2031,0.2059,0.2015,0.2014,0.2035,0.2037,0.2039,0.2107,0,0,0,0,0,0,0.2049,0.2051,0.2053,0.2052,0.2052,0.2065,0.2052,0.205,0.2057,0.2057,0.2044,0.2042,0.2028,0.2032,0.203,0.2057,0.2013,0.2034,0.2036,0.2038,0.2103,0.2111,0.2117,0,0,0,0,0,0.2049,0.2056,0.2054,0.2055,0.2056,0.2066,0.2066,0.2062,0.2057,0.2065,0.2059,0.2042,0.2045,0.2032,0.2029,0.2057,0.2033,0.2036,0.2038,0.21,0.2109,0.2117,0,0,0,0,0,0,0.2049,0.2056,0.2053,0.2061,0.2068,0.2066,0.2072,0.2069,0.2069,0.207,0.2052,0.2049,0.2067,0.205,0.2037,0.207,0.2038,0.204,0.2087,0.2095,0.2102,0.2121,0.2013,0,0,0,0,0,0.2051,0.2059,0.2064,0.2071,0.2076,0.2075,0.2078,0.2079,0.2079,0.2079,0.2071,0.2067,0.2074,0.2075,0.2073,0.2085,0.2093,0.2102,0.2109,0.2115,0.2129,0.2167,0.218,0.2048,0.2048,0.2048,0,0,0.2052,0.2058,0.2061,0.2072,0.2075,0.2091,0.2077,0.209,0.2106,0.2077,0.2092,0.2089,0.2083,0.2103,0.2109,0.2093,0.2158,0.2119,0.2124,0.2135,0.2171,0.2184,0.2196,0.205,0.2049,0.2049,0,0,0.2062,0.2066,0.2077,0.2088,0.2101,0.2106,0.2114,0.2119,0.2125,0.2139,0.2131,0.2149,0.2141,0.2155,0.2159,0.2202,0.2194,0.2198,0.2249,0.2286,0.2297,0.2307,0.234,0.2352,0.2201,0.2201,0.2201,0,0.2062,0.2078,0.2082,0.2099,0.2114,0.2117,0.2137,0.2147,0.2153,0.217,0.2153,0.2182,0.2173,0.2219,0.2235,0.2221,0.2236,0.2217,0.2297,0.2307,0.2316,0.2346,0.2359,0.2205,0.2204,0.2204,0.2204,0,0.208,0.2098,0.2109,0.2133,0.2149,0.2169,0.2187,0.2205,0.2212,0.2225,0.2267,0.2262,0.2283,0.2286,0.2273,0.2338,0.2327,0.2302,0.2277,0.2334,0.2362,0.2374,0.221,0.2209,0.2208,0.2207,0,0,0.207,0.2113,0.2117,0.2137,0.2171,0.2186,0.2225,0.2265,0.2304,0.2312,0.2362,0.2381,0.2386,0.2391,0.2385,0.2416,0.2492,0.2391,0.2391,0.2428,0.2579,0.2554,0.2564,0.2482,0.2484,0.2486,0.2574,0,0.2085,0.2123,0.2144,0.2187,0.2209,0.2237,0.2279,0.2317,0.2348,0.2396,0.2415,0.2455,0.2424,0.2445,0.2474,0.2489,0.2527,0.2471,0.2515,0.2516,0.2491,0.2578,0.2368,0.2427,0.2586,0.2588,0.2589,0,0.2095,0.2122,0.2163,0.2223,0.2238,0.2268,0.2342,0.2382,0.2455,0.248,0.2529,0.2542,0.26,0.2556,0.2626,0.2593,0.2598,0.2603,0.2606,0.2569,0.2515,0.2395,0.2443,0.2609,0.2608,0.2606,0.2605,0,0.2081,0.2137,0.2172,0.2189,0.2256,0.229,0.2334,0.241,0.2446,0.2543,0.2579,0.2645,0.2677,0.2705,0.2708,0.268,0.2777,0.2733,0.2719,0.2717,0.2541,0.2519,0.2792,0.2792,0.2792,0.2791,0.2791,0,0.2086,0.2114,0.217,0.2187,0.2238,0.2295,0.2359,0.2418,0.2499,0.2551,0.2622,0.267,0.2717,0.2763,0.2758,0.2786,0.2819,0.2759,0.2751,0.2558,0.2539,0.2688,0.2675,0.2795,0.2794,0.2793,0.2793,0,0.2061,0.2099,0.2138,0.2208,0.2228,0.2267,0.2343,0.2393,0.2487,0.2558,0.259,0.2702,0.2785,0.282,0.2878,0.285,0.2876,0.287,0.2644,0.261,0.278,0.2769,0.2885,0.2886,0.2886,0.2886,0.2886,0,0.205,0.2068,0.2129,0.2148,0.2178,0.2235,0.2274,0.2368,0.2422,0.2564,0.2599,0.2718,0.2787,0.2885,0.2868,0.2891,0.2905,0.2699,0.2611,0.2816,0.2796,0.2785,0.2774,0.24,0.2396,0.2393,0.2391,0,0.2023,0.2046,0.2074,0.2109,0.2146,0.2183,0.2254,0.2277,0.2398,0.2473,0.2591,0.2666,0.2778,0.2727,0.2764,0.2733,0.2683,0.2638,0.2918,0.2416,0.2367,0.2345,0.2348,0.2362,0.2365,0.2367,0.2369,0.237,0.1994,0.2001,0.2035,0.2066,0.2099,0.2127,0.2134,0.2207,0.2271,0.2341,0.2485,0.2522,0.2571,0.2538,0.2473,0.2415,0.2593,0.2463,0.2468,0.2478,0.2414,0.2368,0.2351,0.2354,0.2356,0.2358,0.236,0,0.1942,0.1962,0.1989,0.2012,0.2011,0.2064,0.2111,0.2087,0.2119,0.2207,0.2284,0.2142,0.2139,0.2168,0.2055,0.2079,0.2008,0.1983,0.1864,0.1897,0.1925,0.1826,0.1611,0.1608,0.1605,0.1603,0,0,0.1916,0.1913,0.1928,0.1911,0.1931,0.1898,0.1905,0.1884,0.1913,0.1886,0.1884,0.2039,0.2134,0.184,0.1822,0.1697,0.1771,0.163,0.2242,0.2137,0.2161,0.2228,0.2118,0,0,0,0,0]},{"header":{"parameterUnit":"m.s-1","parameterCategory":2,"la1":30.2991,"la2":30.254,"lo1":-89.0895,"lo2":-89.0444,"dy":0.0017,"dx":0.0017,"nx":28,"ny":28,"refTime":"2023-10-10T21:00:00:Z","depth":"2","parameterNumber":3,"parameterNumberName":"V-component_of_CURRENTS"},"data":[0,0,0,0,0,0,0,0,0,0,0,0,0,0,0,0,0,0,0,0,0,0,0,0,0,0,0,0,0,0,0,0,0,0,0,0,0,0,0,0,0,0,0,0,0,0,0,0,0,0,0,0,0,0,0,0,0,0,-0.0092,-0.0093,0,-0.0131,-0.0131,-0.0132,-0.0157,-0.0158,-0.0158,-0.0158,-0.0198,-0.0199,-0.02,0,0,0,0,0,0,0,0,0,0,0,0,0,-0.0069,-0.0069,-0.0092,-0.0093,-0.0093,-0.0131,-0.0131,-0.0132,-0.0157,-0.0158,-0.0158,-0.0158,-0.0198,-0.0199,-0.02,0,0,0,0,0,0,0,0,0,0,0,0,0,-0.0091,-0.0069,-0.0092,-0.011,-0.0112,-0.0131,-0.0131,-0.0132,-0.0157,-0.0158,-0.0158,-0.0158,-0.0197,-0.0199,-0.02,-0.0206,0,0,-0.0205,-0.0205,0,0,0,0,0,0,0,0,-0.0089,-0.0092,-0.0107,-0.0109,-0.0111,-0.0139,-0.0138,-0.0157,-0.0157,-0.0141,-0.0158,-0.0158,-0.0178,-0.0181,-0.0189,-0.0208,-0.0209,-0.0205,-0.0206,-0.0206,-0.0207,0,0,0,0,0,0,0,-0.0088,-0.009,-0.0108,-0.0107,-0.011,-0.0125,-0.0128,-0.0142,-0.0158,-0.0142,-0.0144,-0.0147,-0.0179,-0.0187,-0.019,-0.021,-0.0205,-0.0206,-0.0207,-0.0207,-0.0236,-0.0235,0,0,0,0,0,0,-0.008,-0.0089,-0.0107,-0.0109,-0.01,-0.0125,-0.0129,-0.013,-0.0158,-0.0163,-0.0147,-0.0148,-0.0185,-0.0188,-0.0191,-0.0199,-0.0206,-0.0208,-0.0208,-0.0236,-0.0236,-0.0235,0,0,0,0,0,0,-0.0079,-0.0081,-0.0105,-0.0099,-0.0104,-0.0125,-0.0127,-0.0131,-0.0139,-0.0162,-0.0166,-0.0151,-0.0185,-0.0189,-0.0199,-0.0201,-0.0208,-0.021,-0.0236,-0.0236,-0.0236,-0.0216,0,0,0,0,0,0,-0.0078,-0.0081,-0.0079,-0.0099,-0.0104,-0.0111,-0.0127,-0.0132,-0.014,-0.0142,-0.0166,-0.017,-0.0185,-0.0197,-0.0201,-0.0203,-0.0211,-0.0236,-0.0236,-0.0236,-0.0216,-0.0215,-0.0213,0,0,0,0,0,-0.0077,-0.0071,-0.0079,-0.0081,-0.0101,-0.0111,-0.0115,-0.0132,-0.014,-0.0141,-0.0157,-0.017,-0.0198,-0.0198,-0.0202,-0.0205,-0.0236,-0.0236,-0.0236,-0.0217,-0.0215,-0.0213,0,0,0,0,0,0,-0.0059,-0.0073,-0.0083,-0.0081,-0.0094,-0.0115,-0.0116,-0.0129,-0.0143,-0.0145,-0.0167,-0.0172,-0.0182,-0.0194,-0.0194,-0.0212,-0.022,-0.022,-0.0204,-0.0202,-0.0201,-0.0193,-0.0212,0,0,0,0,0,-0.0054,-0.0053,-0.0071,-0.007,-0.0075,-0.0096,-0.0103,-0.0114,-0.0129,-0.0135,-0.0153,-0.017,-0.0185,-0.0193,-0.0206,-0.0216,-0.0232,-0.0221,-0.0219,-0.0218,-0.0214,-0.0245,-0.0246,-0.0235,-0.0235,-0.0235,0,0,-0.0048,-0.0054,-0.0055,-0.0066,-0.0077,-0.0077,-0.01,-0.0106,-0.0108,-0.0137,-0.0143,-0.0164,-0.0185,-0.0196,-0.0202,-0.0207,-0.0228,-0.0218,-0.0216,-0.0214,-0.0245,-0.0246,-0.0247,-0.0234,-0.0234,-0.0234,0,0,-0.0027,-0.0038,-0.0029,-0.0037,-0.005,-0.0063,-0.0062,-0.0083,-0.0094,-0.0103,-0.0126,-0.0147,-0.0165,-0.0186,-0.0198,-0.0195,-0.0218,-0.0199,-0.0188,-0.0218,-0.0219,-0.0221,-0.0237,-0.024,-0.0201,-0.02,-0.02,0,-0.0018,-0.0009,-0.0028,-0.0021,-0.0023,-0.0052,-0.0043,-0.0059,-0.0081,-0.0087,-0.0099,-0.0137,-0.0161,-0.0179,-0.0183,-0.0192,-0.0208,-0.0194,-0.0216,-0.0218,-0.022,-0.0236,-0.024,-0.0199,-0.02,-0.02,-0.02,0,0.0008,0.0015,0.002,0.002,0.0015,0.0018,-0.0004,-0.0012,-0.003,-0.0049,-0.0071,-0.0109,-0.013,-0.0147,-0.0167,-0.0191,-0.0196,-0.021,-0.0221,-0.022,-0.0237,-0.0241,-0.0198,-0.0198,-0.0199,-0.0199,0,0,0.0034,0.0039,0.0042,0.0052,0.0038,0.004,0.0036,0.0025,0.0028,-0.0011,-0.0012,-0.0063,-0.009,-0.0106,-0.014,-0.0175,-0.0207,-0.0198,-0.02,-0.0213,-0.0264,-0.0257,-0.0261,-0.0227,-0.0228,-0.0229,-0.0269,0,0.0062,0.0092,0.0081,0.0106,0.012,0.0095,0.0099,0.0083,0.0061,0.0051,-0.0005,-0.002,-0.0073,-0.0083,-0.0129,-0.0183,-0.0218,-0.0194,-0.0264,-0.0265,-0.0259,-0.0265,-0.0233,-0.0265,-0.0273,-0.0274,-0.0274,0,0.0095,0.0113,0.0146,0.0161,0.0164,0.0173,0.0177,0.0175,0.0146,0.0129,0.009,0.0047,-0.0011,-0.0052,-0.0155,-0.0137,-0.0198,-0.0247,-0.025,-0.0252,-0.0266,-0.027,-0.0273,-0.0281,-0.0281,-0.028,-0.028,0,0.0137,0.0158,0.019,0.0194,0.0204,0.0216,0.0219,0.0203,0.0214,0.0178,0.018,0.01,0.0078,-0.0024,-0.0129,-0.0145,-0.0232,-0.0265,-0.0316,-0.0315,-0.0306,-0.0303,-0.0336,-0.0336,-0.0336,-0.0336,-0.0336,0,0.0177,0.0202,0.0216,0.0235,0.0276,0.0264,0.0299,0.0289,0.0291,0.0317,0.0225,0.0234,0.0082,0.0013,-0.0101,-0.0211,-0.0212,-0.0312,-0.0328,-0.0296,-0.0293,-0.0321,-0.0319,-0.0337,-0.0337,-0.0337,-0.0337,0,0.022,0.0227,0.0268,0.029,0.03,0.0331,0.0363,0.0392,0.0376,0.041,0.0404,0.0339,0.0248,0.01,-0.0045,-0.0154,-0.0272,-0.0309,-0.0253,-0.0262,-0.0346,-0.0342,-0.0384,-0.0384,-0.0384,-0.0384,-0.0384,0,0.0244,0.0272,0.0314,0.0346,0.036,0.04,0.0437,0.044,0.0477,0.0485,0.0517,0.0443,0.0418,0.0205,-0.0,-0.0194,-0.0238,-0.0298,-0.0334,-0.0341,-0.0352,-0.0348,-0.0344,-0.0312,-0.0312,-0.0311,-0.0311,0,0.0294,0.0309,0.0345,0.0412,0.0459,0.0509,0.0561,0.061,0.0628,0.0658,0.0707,0.0692,0.0495,0.0319,0.0046,-0.0093,-0.0272,-0.0296,-0.0318,-0.0301,-0.0276,-0.0286,-0.0284,-0.0307,-0.0307,-0.0308,-0.0308,-0.0308,0.0333,0.0368,0.0419,0.0483,0.0542,0.0623,0.0678,0.0748,0.0829,0.0894,0.0869,0.0853,0.0633,0.0302,0.0057,-0.022,-0.0222,-0.0327,-0.0327,-0.0328,-0.0309,-0.0285,-0.0314,-0.0314,-0.0314,-0.0315,-0.0315,0,0.0385,0.0421,0.0486,0.0567,0.0647,0.066,0.0764,0.0836,0.0954,0.1004,0.1045,0.0866,0.0651,0.0377,-0.0016,-0.0248,-0.028,-0.0333,-0.0319,-0.032,-0.0322,-0.0303,-0.0306,-0.0307,-0.0308,-0.0308,0,0,0.0414,0.0485,0.0517,0.0647,0.0703,0.0813,0.0879,0.0993,0.1057,0.1135,0.1124,0.1075,0.0746,0.0469,0.0149,-0.0082,-0.0154,-0.0132,-0.0113,-0.006,-0.0059,-0.0289,-0.0257,0,0,0,0,0]}],[{"header":{"parameterUnit":"m.s-1","parameterCategory":2,"la1":30.2991,"la2":30.254,"lo1":-89.0895,"lo2":-89.0444,"dy":0.0017,"dx":0.0017,"nx":28,"ny":28,"refTime":"2023-10-10T21:00:00:Z","depth":"4","parameterNumber":2,"parameterNumberName":"U-component_of_CURRENTS"},"data":[0,0,0,0,0,0,0,0,0,0,0,0,0,0,0,0,0,0,0,0,0,0,0,0,0,0,0,0,0,0,0,0,0,0,0,0,0,0,0,0,0,0,0,0,0,0,0,0,0,0,0,0,0,0,0,0,0,0,0.1325,0.1326,0,0.1368,0.1369,0.1369,0.1412,0.1413,0.1414,0.1414,0.1467,0.1468,0.1469,0,0,0,0,0,0,0,0,0,0,0,0,0,0.1275,0.1275,0.1325,0.1326,0.1327,0.1368,0.1369,0.1369,0.1412,0.1413,0.1414,0.1415,0.1467,0.1468,0.1469,0,0,0,0,0,0,0,0,0,0,0,0,0,0.1304,0.1275,0.1325,0.1354,0.1357,0.1368,0.1369,0.1369,0.1412,0.1413,0.1414,0.1415,0.1467,0.1468,0.1469,0.1456,0,0,0.1473,0.1473,0,0,0,0,0,0,0,0,0.1302,0.1305,0.1349,0.1352,0.1356,0.1387,0.1371,0.1399,0.1412,0.139,0.1414,0.1415,0.1441,0.1445,0.1449,0.1458,0.1461,0.1473,0.1474,0.1474,0.1474,0,0,0,0,0,0,0,0.13,0.1304,0.1341,0.135,0.1354,0.1363,0.1368,0.1376,0.1409,0.1392,0.1395,0.1402,0.1443,0.1448,0.145,0.1461,0.1473,0.1474,0.1475,0.1475,0.1561,0.1562,0,0,0,0,0,0,0.1296,0.1302,0.134,0.1343,0.1332,0.1363,0.1369,0.1375,0.1408,0.1415,0.1401,0.1404,0.1445,0.1449,0.1452,0.1524,0.1474,0.1475,0.1476,0.1559,0.1561,0.1563,0,0,0,0,0,0,0.1295,0.1299,0.1338,0.1324,0.133,0.1363,0.1369,0.1375,0.1411,0.1415,0.1422,0.1434,0.1446,0.1451,0.1491,0.1523,0.1476,0.1477,0.1557,0.156,0.1562,0.1612,0,0,0,0,0,0,0.1293,0.1298,0.1315,0.1324,0.1331,0.1366,0.1369,0.1375,0.1412,0.1417,0.1445,0.145,0.1447,0.1489,0.1492,0.1524,0.1478,0.1555,0.1558,0.1561,0.1608,0.1616,0.1622,0,0,0,0,0,0.1291,0.1306,0.1316,0.1321,0.1348,0.1367,0.1372,0.1397,0.1413,0.1432,0.1456,0.145,0.151,0.1491,0.1494,0.1527,0.1554,0.1557,0.1561,0.1605,0.1614,0.1622,0,0,0,0,0,0,0.1295,0.1312,0.1323,0.1344,0.1364,0.1375,0.1399,0.1414,0.1447,0.1462,0.1466,0.1472,0.1521,0.1517,0.1496,0.1562,0.1532,0.1537,0.1565,0.1574,0.1581,0.157,0.1479,0,0,0,0,0,0.1301,0.132,0.1335,0.1356,0.1369,0.139,0.1407,0.1424,0.1447,0.1464,0.1484,0.1508,0.1531,0.1548,0.1565,0.1596,0.1598,0.1622,0.1629,0.1635,0.163,0.166,0.1669,0.1574,0.1574,0.1574,0,0,0.1309,0.1322,0.1334,0.136,0.1379,0.1399,0.1404,0.1439,0.1463,0.1463,0.1515,0.1535,0.1546,0.1586,0.1607,0.1591,0.1668,0.1639,0.1644,0.1635,0.1665,0.1674,0.1682,0.1577,0.1576,0.1576,0,0,0.1323,0.1347,0.1365,0.1384,0.1418,0.1428,0.1445,0.1475,0.1502,0.1544,0.1556,0.1593,0.1629,0.1641,0.1651,0.1704,0.1704,0.1722,0.1746,0.1777,0.1785,0.1792,0.1823,0.1832,0.1723,0.1723,0.1724,0,0.1335,0.1355,0.1375,0.1396,0.1417,0.1445,0.1467,0.1494,0.1536,0.156,0.1572,0.1639,0.1651,0.1691,0.1713,0.1719,0.1739,0.1713,0.1786,0.1792,0.1798,0.1828,0.1837,0.1726,0.1726,0.1726,0.1725,0,0.1351,0.138,0.1396,0.1429,0.1453,0.1482,0.1513,0.155,0.1587,0.1611,0.1675,0.1697,0.1735,0.1751,0.1749,0.1802,0.1805,0.1792,0.1761,0.181,0.1839,0.1848,0.173,0.1729,0.1729,0.1728,0,0,0.1342,0.1396,0.1405,0.1429,0.1476,0.1495,0.1542,0.1584,0.1626,0.1674,0.1725,0.1768,0.1793,0.1804,0.1817,0.184,0.1906,0.1839,0.184,0.1864,0.1986,0.188,0.1879,0.1913,0.1914,0.1915,0.1995,0,0.1352,0.1393,0.1419,0.1467,0.1489,0.1531,0.1571,0.1617,0.1668,0.1726,0.176,0.1821,0.1811,0.1851,0.187,0.1901,0.1929,0.1885,0.1939,0.194,0.1835,0.1885,0.192,0.2001,0.2003,0.2005,0.2006,0,0.1352,0.1382,0.1427,0.1487,0.1504,0.1541,0.1614,0.1658,0.1734,0.1777,0.1834,0.1872,0.1928,0.1913,0.1979,0.1958,0.1977,0.1989,0.1992,0.1875,0.1849,0.1938,0.2021,0.202,0.2019,0.2018,0.2017,0,0.132,0.1385,0.1423,0.1445,0.1516,0.1556,0.1605,0.168,0.1724,0.1828,0.1872,0.1939,0.1992,0.2021,0.2056,0.2034,0.2119,0.209,0.2009,0.2003,0.2051,0.2043,0.2131,0.2131,0.213,0.213,0.213,0,0.1301,0.1337,0.1422,0.1442,0.1498,0.156,0.163,0.1688,0.1775,0.1828,0.1908,0.1952,0.2025,0.2079,0.2089,0.2079,0.2153,0.2018,0.2014,0.2074,0.2067,0.2058,0.2049,0.2133,0.2132,0.2132,0.2131,0,0.1251,0.1309,0.1358,0.1449,0.1484,0.153,0.1632,0.1677,0.1775,0.1849,0.189,0.1988,0.2062,0.2118,0.2181,0.2116,0.2125,0.2104,0.2185,0.2185,0.1979,0.1971,0.201,0.2007,0.2004,0.2002,0.2,0,0.1223,0.1247,0.1352,0.1387,0.1436,0.1514,0.1561,0.1665,0.171,0.185,0.1872,0.1991,0.2046,0.2045,0.2112,0.2137,0.2107,0.2095,0.2003,0.1972,0.1966,0.1963,0.1959,0.1996,0.1995,0.1994,0.1994,0,0.1167,0.1221,0.1263,0.1335,0.1397,0.145,0.1532,0.1546,0.1669,0.177,0.1815,0.1855,0.1933,0.1975,0.202,0.2025,0.2089,0.2066,0.207,0.1984,0.1956,0.1952,0.1951,0.1984,0.1986,0.1987,0.1987,0,0.1131,0.1146,0.1213,0.1267,0.1337,0.1365,0.1417,0.1468,0.152,0.1669,0.1685,0.1807,0.1916,0.192,0.1958,0.1964,0.192,0.1836,0.1851,0.1862,0.1775,0.1715,0.1671,0,0,0,0,0,0.1081,0.1092,0.1137,0.1184,0.1248,0.1293,0.1384,0.1437,0.1549,0.1541,0.1606,0.1673,0.1725,0.1786,0.1762,0.1897,0.1932,0.186,0.1844,0.1933,0.1944,0.1855,0,0,0,0,0,0,0.1047,0.1086,0.1104,0.1103,0.1122,0.1179,0.1235,0.1317,0.1314,0.1438,0.1476,0.1572,0.1651,0.1726,0.1731,0.1751,0.1706,0.194,0.1936,0.1927,0.1937,0.1946,0.1857,0,0,0,0,0]},{"header":{"parameterUnit":"m.s-1","parameterCategory":2,"la1":30.2991,"la2":30.254,"lo1":-89.0895,"lo2":-89.0444,"dy":0.0017,"dx":0.0017,"nx":28,"ny":28,"refTime":"2023-10-10T21:00:00:Z","depth":"4","parameterNumber":3,"parameterNumberName":"V-component_of_CURRENTS"},"data":[0,0,0,0,0,0,0,0,0,0,0,0,0,0,0,0,0,0,0,0,0,0,0,0,0,0,0,0,0,0,0,0,0,0,0,0,0,0,0,0,0,0,0,0,0,0,0,0,0,0,0,0,0,0,0,0,0,0,0.0187,0.0187,0,0.0158,0.0158,0.0157,0.0139,0.0139,0.0139,0.0139,0.0105,0.0105,0.0104,0,0,0,0,0,0,0,0,0,0,0,0,0,0.0199,0.0199,0.0187,0.0187,0.0187,0.0158,0.0158,0.0157,0.0139,0.0139,0.0139,0.0139,0.0106,0.0105,0.0104,0,0,0,0,0,0,0,0,0,0,0,0,0,0.0184,0.0199,0.0187,0.0175,0.0173,0.0158,0.0158,0.0157,0.0139,0.0139,0.0139,0.0139,0.0106,0.0105,0.0104,0.0097,0,0,0.01,0.0099,0,0,0,0,0,0,0,0,0.0185,0.0184,0.0177,0.0176,0.0174,0.0153,0.0149,0.0137,0.0139,0.0152,0.0139,0.0139,0.0121,0.0119,0.0113,0.0095,0.0094,0.0099,0.0099,0.0098,0.0098,0,0,0,0,0,0,0,0.0186,0.0185,0.0175,0.0177,0.0175,0.0161,0.0159,0.0147,0.0137,0.0151,0.0149,0.0147,0.012,0.0114,0.0112,0.0093,0.01,0.0098,0.0098,0.0097,0.0068,0.0068,0,0,0,0,0,0,0.0192,0.0186,0.0176,0.0174,0.018,0.0161,0.0158,0.0159,0.0137,0.0134,0.0147,0.0146,0.0116,0.0113,0.011,0.0114,0.0098,0.0097,0.0096,0.0068,0.0068,0.0068,0,0,0,0,0,0,0.0193,0.0192,0.0177,0.018,0.0177,0.0161,0.0162,0.0159,0.0152,0.0134,0.0131,0.0144,0.0116,0.0112,0.0103,0.0112,0.0096,0.0095,0.0068,0.0068,0.0068,0.0113,0,0,0,0,0,0,0.0193,0.0192,0.0195,0.018,0.0177,0.0172,0.0162,0.0158,0.0151,0.015,0.0131,0.0127,0.0116,0.0105,0.0102,0.011,0.0094,0.0068,0.0068,0.0068,0.0112,0.0115,0.0118,0,0,0,0,0,0.0194,0.02,0.0196,0.0194,0.0181,0.0173,0.017,0.0157,0.0151,0.0151,0.0138,0.0128,0.0103,0.0104,0.01,0.0109,0.0068,0.0068,0.0068,0.0111,0.0114,0.0118,0,0,0,0,0,0,0.0206,0.0199,0.0193,0.0197,0.0187,0.017,0.0169,0.0159,0.0148,0.0148,0.0129,0.0125,0.012,0.0105,0.0107,0.0099,0.0083,0.0083,0.0117,0.012,0.0123,0.0143,0.0093,0,0,0,0,0,0.0211,0.0215,0.0202,0.0205,0.0201,0.0185,0.018,0.0171,0.0159,0.0154,0.0141,0.0126,0.0116,0.0112,0.0098,0.0095,0.0076,0.0096,0.0099,0.0102,0.0114,0.0095,0.0098,0.0069,0.0069,0.0069,0,0,0.0216,0.0213,0.0215,0.0208,0.0199,0.0203,0.0182,0.0177,0.0182,0.0152,0.0154,0.0134,0.0116,0.0113,0.011,0.0104,0.0096,0.0102,0.0104,0.0116,0.0095,0.0098,0.0101,0.0069,0.0069,0.0069,0,0,0.0232,0.0226,0.0236,0.0231,0.0222,0.0215,0.0215,0.0199,0.0194,0.0189,0.0171,0.0162,0.0141,0.0136,0.013,0.014,0.011,0.0127,0.0163,0.0144,0.0146,0.0148,0.0115,0.0113,0.0132,0.0132,0.0132,0,0.0238,0.0251,0.0236,0.0244,0.0247,0.0224,0.0236,0.0228,0.0211,0.0214,0.0196,0.0176,0.0157,0.0164,0.0166,0.0149,0.0124,0.0154,0.0149,0.015,0.0152,0.0117,0.0115,0.0134,0.0134,0.0134,0.0133,0,0.026,0.0271,0.0277,0.0284,0.0284,0.0289,0.0279,0.0278,0.0268,0.0258,0.0255,0.0227,0.0218,0.0206,0.019,0.0192,0.0166,0.0153,0.0144,0.0158,0.0119,0.0117,0.0137,0.0136,0.0136,0.0135,0,0,0.0275,0.0291,0.0294,0.0309,0.0307,0.0311,0.0323,0.033,0.0343,0.0319,0.0333,0.0309,0.0288,0.0279,0.0253,0.0238,0.0218,0.0202,0.02,0.0176,0.016,0.0133,0.0127,0.0201,0.0201,0.0201,0.0125,0,0.0299,0.0331,0.033,0.0363,0.038,0.0371,0.039,0.039,0.038,0.0385,0.0359,0.0353,0.0317,0.0309,0.029,0.0236,0.0215,0.0239,0.0145,0.0142,0.0123,0.0125,0.0201,0.0122,0.0122,0.0121,0.0121,0,0.0324,0.0345,0.0382,0.0416,0.0423,0.044,0.0467,0.0477,0.0476,0.0466,0.0454,0.0421,0.0398,0.0362,0.0286,0.0299,0.0238,0.0193,0.0188,0.0151,0.0111,0.0108,0.0116,0.0116,0.0116,0.0117,0.0117,0,0.0351,0.0384,0.042,0.0428,0.0458,0.0481,0.0499,0.0506,0.0524,0.0515,0.0516,0.0478,0.0456,0.0385,0.0282,0.0281,0.0189,0.0175,0.0093,0.0089,0.0117,0.0116,0.0126,0.0126,0.0126,0.0126,0.0126,0,0.0379,0.041,0.0438,0.0459,0.0509,0.0517,0.0562,0.0571,0.0588,0.0612,0.0559,0.0556,0.046,0.039,0.0299,0.0183,0.0197,0.0102,0.0073,0.0134,0.0136,0.0114,0.0113,0.0123,0.0124,0.0124,0.0125,0,0.0403,0.042,0.0467,0.0508,0.0524,0.0561,0.0609,0.064,0.0644,0.0671,0.0669,0.0614,0.0516,0.0404,0.028,0.0202,0.0096,0.0051,0.0115,0.009,0.0003,0.0005,-0.0043,-0.0044,-0.0045,-0.0047,-0.0047,0,0.0417,0.0444,0.0501,0.0532,0.0554,0.0604,0.0643,0.067,0.0698,0.0702,0.0717,0.0636,0.0578,0.0385,0.0262,0.008,0.0054,-0.0005,0.0012,0.0012,-0.0012,-0.0007,-0.0003,-0.0049,-0.005,-0.005,-0.005,0,0.0448,0.0468,0.0506,0.0568,0.0616,0.0668,0.072,0.0746,0.0775,0.0775,0.0751,0.0651,0.0536,0.0384,0.0236,0.0109,0.0034,-0.0018,-0.0017,-0.0001,0.0003,-0.0018,-0.0013,-0.0055,-0.0054,-0.0054,-0.0053,0,0.047,0.0499,0.0548,0.0601,0.0664,0.0718,0.0742,0.0772,0.08,0.08,0.0789,0.0668,0.0602,0.0398,0.0266,0.0132,0.01,0.0063,0.006,0.0063,0.0114,0.0136,0.01,0,0,0,0,0,0.0488,0.052,0.0574,0.0636,0.0698,0.0733,0.079,0.0807,0.0828,0.0818,0.0807,0.0699,0.0502,0.0418,0.0278,0.0233,0.007,0.0065,0.0024,-0.0079,-0.0074,-0.0034,0,0,0,0,0,0,0.0501,0.0553,0.0576,0.0653,0.0697,0.0768,0.0808,0.0823,0.0811,0.0811,0.0707,0.066,0.0465,0.0581,0.0275,0.0234,0.0188,-0.0027,-0.003,-0.0081,-0.0077,-0.0073,-0.003,0,0,0,0,0]}]]